{"data":{"norad_id":67309,"intl_designator":"2026-002E","name":"STARLINK-36482","alt_names":[],"object_type":"PAYLOAD","status":"ACTIVE","operator":null,"country":"US","launch_date":"2026-01-04","launch_site_code":"AFETR","launch_vehicle":null,"mission":null,"orbit_class":"UNKNOWN","rcs_meters":null,"size_class":null,"mass_kg":null,"dimensions":null,"purposes":["comms"],"wikipedia_slug":null,"has_3d_model":false,"image_url":null,"decayed_at":null,"tle_current":{"epoch":"2026-09-19T04:40:44.855040Z","epoch_age_seconds":188166,"freshness":"STALE","line1":"1 67309U 26002E   26262.19496360  .00008007  00000+0  30015-3 0  9997","line2":"2 67309  43.0030 312.3992 0001575 276.0237  84.0436 15.27581967 40674","mean_motion":15.27581967,"eccentricity":0.0001575,"inclination_deg":43.003,"raan_deg":312.3992,"arg_perigee_deg":276.0237,"mean_anomaly_deg":84.0436,"bstar":0.00030015,"rev_number":4067,"period_min":94.266627330512,"perigee_km":481.96257025788,"apogee_km":484.12384202282,"semimajor_km":6861.1802061403,"source":"CELESTRAK","updated_at":"2026-09-20T09:00:43.503036Z"}}}